Regional Weather Roundup
Issued by NWS

Home | Current Version | Previous Version | Graphics & Text | Print | Product List | Glossary On
Versions: 1 2 3 4 5 6 7 8 9 10 11 12 13 14 15 16 17 18 19 20 21 22 23 24 25 26 27 28 29 30 31 32 33 34 35 36 37 38 39 40 41 42 43 44 45 46 47 48 49 50
000
ASUS43 KLMK 010502
RWRKY
KENTUCKY REGIONAL WEATHER ROUNDUP
NATIONAL WEATHER SERVICE LOUISVILLE KY
100 AM EDT SAT AUG 01 2015

NOTE "FAIR" INDICATES FEW OR NO CLOUDS BELOW 12,000 FEET
WITH NO SIGNIFICANT WEATHER AND/OR OBSTRUCTIONS TO VISIBILITY.

KYZ001>023-026-027-061>063-070>075-010600-
WESTERN AND SOUTH CENTRAL KENTUCKY

CITY           SKY/WX    TMP DP  RH WIND       PRES   REMARKS
PADUCAH        CLEAR     71  68  90 CALM      30.05R
HENDERSON      CLEAR     72  66  83 SW3       30.02S
OWENSBORO      CLEAR     74  70  87 CALM      30.04R
HOPKINSVILLE   CLEAR     74  69  85 W3        30.05S
BOWLING GREEN  CLEAR     71  65  81 CALM      30.05S
GLASGOW        NOT AVBL
$$

KYZ024-025-028>034-038-045-046-053-010600-
NORTH CENTRAL KENTUCKY

CITY           SKY/WX    TMP DP  RH WIND       PRES   REMARKS
LOUISVILLE/SDF PTCLDY    76  64  66 NW3       30.01R
LOUISVILLE/LOU CLEAR     75  63  66 CALM      30.02R
FORT KNOX      NOT AVBL
$$

KYZ035>037-039>044-047>052-055>060-089>105-010600-
NORTHEAST KENTUCKY

CITY           SKY/WX    TMP DP  RH WIND       PRES   REMARKS
LEXINGTON      CLEAR     69  61  75 W6        30.03S
COVINGTON      CLEAR     71  61  70 W7        30.00R
FRANKFORT      CLEAR     72  60  66 W6        30.01S
$$

KYZ054-064>069-076>088-106>120-010600-
SOUTHEAST KENTUCKY

CITY           SKY/WX    TMP DP  RH WIND       PRES   REMARKS
JACKSON        CLEAR     68  62  81 CALM      30.04S
LONDON         CLEAR     67  61  81 CALM      30.05S
SOMERSET       NOT AVBL
MIDDLESBORO    CLEAR     63  62  96 CALM      30.08S
MONTICELLO     CLEAR     63  63 100 CALM      30.08S
$$



USA.gov is the U.S. government's official web portal to all federal, state and local government web resources and services.